sat.trackr.live / text

‹ back to catalog

STARLINK-5127

NORAD 54010 · 2022-125AY

PAYLOAD ACTIVE UNKNOWN

§ Identity

Operator
Country
US
Launch date
2022-10-05
Launch site
AFWTR
Launch vehicle
Mass (kg)
RCS (m²)

Purposes: comms

External: N2YO · Heavens-Above · Gunter

§ Orbital elements

Epoch: 2026-09-20T22:30:59.993568Z

Period
93.85 min
Inclination
53.1603°
Eccentricity
0.0001031
Mean motion
15.34403562 rev/d
Perigee alt
462.0 km
Apogee alt
463.4 km
Semi-major
6,840.8 km
B*
4.8552e-5
RAAN
35.4052°
Arg perigee
77.4749°
Mean anomaly
282.6369°
Rev number
21,924

§ Raw data

STARLINK-51271 54010U 22125AY  26263.93819437  .00001265  00000+0  48552-4 0  99962 54010  53.1603  35.4052 0001031  77.4749 282.6369 15.34403562219249

JSON: /api/v1/satellites/54010 · /tle

For live sub-satellite position, see the globe view (requires WebGL).

§ Visibility from observer

Set your observer location to see the next 7 days of passes ≥ 10°. The values pass through the URL so the page stays shareable.

No JS? Fill the form by hand. The geolocation button needs JavaScript.